This is the latest recevied weather packets stored in our database for station/object KI4BIY. If no packets are shown the sender has not sent any weather packets the latest 10 day(s).
| Time | Temp. | Humidity | Pressure | Rain* | Wind** | Luminosity | Snow |
|---|---|---|---|---|---|---|---|
| 1777698023 | 12.22° C | 67% | 1016.6 hPa | 0 mm | - | 0 W/m² | - |
| 1777697720 | 12.22° C | 64% | 1016.5 hPa | 0 mm | - | 0 W/m² | - |
| 1777697417 | 12.22° C | 64% | 1016.5 hPa | 0 mm | - | 0 W/m² | - |
| 1777697113 | 12.22° C | 64% | 1016.3 hPa | 0 mm | - | 0 W/m² | - |
| 1777696810 | 12.22° C | 63% | 1016.2 hPa | 0 mm | - | 0 W/m² | - |
| 1777696508 | 12.22° C | 63% | 1016.2 hPa | 0 mm | - | 0 W/m² | - |
| 1777696203 | 12.22° C | 64% | 1016 hPa | 0 mm | - | 0 W/m² | - |
| 1777695899 | 12.22° C | 64% | 1016.2 hPa | 0 mm | - | 0 W/m² | - |
| 1777695597 | 11.67° C | 64% | 1016 hPa | 0 mm | - | 0 W/m² | - |
| 1777695295 | 11.67° C | 66% | 1015.9 hPa | 0 mm | - | 0 W/m² | - |
| 1777694991 | 11.67° C | 65% | 1015.8 hPa | 0 mm | - | 0 W/m² | - |
| 1777694688 | 11.67° C | 66% | 1015.7 hPa | 0 mm | - | 0 W/m² | - |
| 1777694384 | 11.67° C | 64% | 1015.6 hPa | 0 mm | - | 0 W/m² | - |
| 1777694080 | 11.67° C | 65% | 1015.8 hPa | 0 mm | - | 0 W/m² | - |
| 1777693778 | 11.67° C | 65% | 1015.7 hPa | 0 mm | - | 0 W/m² | - |
| 1777693477 | 12.22° C | 67% | 1015.8 hPa | 0 mm | - | 0 W/m² | - |
| 1777693175 | 12.22° C | 64% | 1015.8 hPa | 0 mm | - | 0 W/m² | - |
| 1777692872 | 11.67° C | 65% | 1015.8 hPa | 0 mm | - | 0 W/m² | - |
| 1777692568 | 11.67° C | 66% | 1015.7 hPa | 0 mm | - | 0 W/m² | - |
| 1777692265 | 11.67° C | 68% | 1016 hPa | 0 mm | - | 0 W/m² | - |
| 1777691962 | 11.67° C | 66% | 1015.9 hPa | 0 mm | - | 0 W/m² | - |
| 1777691661 | 11.67° C | 66% | 1016.1 hPa | 0 mm | - | 0 W/m² | - |
| 1777691358 | 11.67° C | 67% | 1016.2 hPa | 0 mm | - | 0 W/m² | - |
| 1777691056 | 11.67° C | 68% | 1016.3 hPa | 0 mm | - | 0 W/m² | - |
| 1777690754 | 11.67° C | 70% | 1016.4 hPa | 0 mm | - | 0 W/m² | - |
* Rain latest hour (hover to see other rain measurements)
** Current wind speed in m/s (hover to see current wind gust speed)